| time (UTC) | temp F | wind direction | speed MPH | gust MPH | rain 1hr in | rain 24hr in | rain mn in | humidity % | barometer mb |
| 20260904070624 | 66 | 213 | 3.0 | 8.0 | 0.00 | 1.36 | 1.24 | 85 | 1014.2 |
| 20260904070118 | 66 | 209 | 4.0 | 8.0 | 0.00 | 1.36 | 1.24 | 84 | 1014.3 |
| 20260904065634 | 66 | 192 | 0.0 | 4.0 | 0.00 | 1.36 | 1.24 | 84 | 1014.3 |
| 20260904065120 | 65 | 40 | 0.0 | 4.0 | 0.00 | 1.36 | 1.24 | 84 | 1014.3 |
| 20260904064651 | 65 | 45 | 0.0 | 10.0 | 0.00 | 1.36 | 1.24 | 84 | 1014.2 |
| 20260904064146 | 65 | 122 | 0.0 | 13.0 | 0.00 | 1.36 | 1.24 | 84 | 1014.3 |
| 20260904063639 | 65 | 168 | 8.0 | 13.0 | 0.00 | 1.36 | 1.24 | 84 | 1014.2 |
| 20260904063147 | 65 | 170 | 7.0 | 14.0 | 0.00 | 1.36 | 1.24 | 84 | 1014.1 |
| 20260904062621 | 65 | 176 | 10.0 | 12.0 | 0.00 | 1.36 | 1.24 | 84 | 1014.1 |
| 20260904062135 | 65 | 190 | 3.0 | 8.0 | 0.00 | 1.36 | 1.24 | 84 | 1014.1 |
| 20260904061622 | 65 | 196 | 3.0 | 10.0 | 0.00 | 1.36 | 1.24 | 84 | 1014.1 |
| 20260904061156 | 65 | 159 | 7.0 | 11.0 | 0.00 | 1.36 | 1.24 | 84 | 1014.1 |
| 20260904060622 | 65 | 172 | 4.0 | 8.0 | 0.00 | 1.36 | 1.24 | 84 | 1014.2 |
| 20260904060156 | 65 | 171 | 2.0 | 6.0 | 0.00 | 1.36 | 1.24 | 84 | 1014.2 |
| 20260904055623 | 65 | 194 | 2.0 | 4.0 | 0.00 | 1.36 | 1.24 | 84 | 1014.3 |
| 20260904055135 | 65 | 214 | 2.0 | 4.0 | 0.00 | 1.36 | 1.24 | 84 | 1014.3 |
| 20260904054622 | 65 | 203 | 1.0 | 5.0 | 0.00 | 1.36 | 1.24 | 84 | 1014.4 |
| 20260904054118 | 65 | 176 | 2.0 | 5.0 | 0.00 | 1.36 | 1.24 | 84 | 1014.4 |
| 20260904053634 | 65 | 197 | 1.0 | 5.0 | 0.00 | 1.36 | 1.24 | 84 | 1014.6 |
| 20260904053119 | 65 | 210 | 0.0 | 2.0 | 0.00 | 1.36 | 1.24 | 84 | 1014.7 |
| 20260904052635 | 65 | 210 | 0.0 | 4.0 | 0.00 | 1.36 | 1.24 | 84 | 1014.8 |
| 20260904052122 | 65 | 196 | 1.0 | 8.0 | 0.00 | 1.36 | 1.24 | 84 | 1014.9 |
| 20260904051617 | 65 | 188 | 3.0 | 8.0 | 0.00 | 1.36 | 1.24 | 84 | 1015.0 |
| 20260904051129 | 66 | 238 | 2.0 | 10.0 | 0.00 | 1.36 | 1.24 | 84 | 1015.1 |
| 20260904050622 | 65 | 199 | 4.0 | 10.0 | 0.00 | 1.36 | 1.24 | 84 | 1015.1 |
| 20260904050135 | 65 | 184 | 2.0 | 8.0 | 0.00 | 1.36 | 1.24 | 83 | 1015.0 |
| 20260904045631 | 65 | 203 | 4.0 | 8.0 | 0.01 | 1.36 | 1.24 | 83 | 1015.3 |
| 20260904045123 | 65 | 239 | 5.0 | 8.0 | 0.01 | 1.36 | 1.24 | 83 | 1015.4 |
| 20260904044617 | 65 | 209 | 4.0 | 7.0 | 0.01 | 1.36 | 1.24 | 83 | 1015.3 |
| 20260904044132 | 66 | 195 | 3.0 | 9.0 | 0.01 | 1.36 | 1.24 | 83 | 1015.3 |
| 20260904043625 | 66 | 194 | 4.0 | 9.0 | 0.01 | 1.36 | 1.24 | 83 | 1015.3 |
| 20260904043120 | 66 | 188 | 4.0 | 7.0 | 0.01 | 1.36 | 1.24 | 83 | 1015.3 |
| 20260904042637 | 66 | 197 | 3.0 | 10.0 | 0.01 | 1.36 | 1.24 | 83 | 1015.3 |
| 20260904042124 | 66 | 212 | 4.0 | 11.0 | 0.01 | 1.36 | 1.24 | 83 | 1015.5 |
| 20260904041619 | 66 | 207 | 7.0 | 10.0 | 0.01 | 1.36 | 1.24 | 83 | 1015.5 |
| 20260904041135 | 66 | 216 | 3.0 | 7.0 | 0.01 | 1.36 | 1.24 | 83 | 1015.5 |
| 20260904040621 | 66 | 196 | 3.0 | 7.0 | 0.01 | 1.36 | 1.24 | 83 | 1015.5 |
| 20260904040136 | 66 | 202 | 4.0 | 7.0 | 0.01 | 1.36 | 1.24 | 83 | 1015.4 |
| 20260904035624 | 66 | 197 | 2.0 | 7.0 | 0.00 | 1.35 | 1.23 | 82 | 1015.4 |
| 20260904035139 | 66 | 195 | 2.0 | 7.0 | 0.00 | 1.35 | 1.23 | 83 | 1015.5 |
| 20260904034647 | 66 | 195 | 3.0 | 5.0 | 0.00 | 1.35 | 1.23 | 83 | 1015.6 |
| 20260904034121 | 66 | 207 | 1.0 | 5.0 | 0.00 | 1.35 | 1.23 | 82 | 1015.6 |
| 20260904033636 | 66 | 201 | 3.0 | 5.0 | 0.01 | 1.35 | 1.23 | 82 | 1015.8 |
| 20260904033123 | 66 | 191 | 0.0 | 5.0 | 0.02 | 1.35 | 1.23 | 82 | 1015.8 |
| 20260904032658 | 66 | 192 | 1.0 | 5.0 | 0.03 | 1.35 | 1.23 | 82 | 1015.8 |
| 20260904032124 | 66 | 168 | 2.0 | 7.0 | 0.05 | 1.35 | 1.23 | 82 | 1015.8 |
| 20260904031617 | 66 | 205 | 2.0 | 7.0 | 0.06 | 1.35 | 1.23 | 82 | 1015.8 |
| 20260904031135 | 67 | 253 | 1.0 | 7.0 | 0.08 | 1.35 | 1.23 | 82 | 1016.0 |
| 20260904030623 | 67 | 228 | 6.0 | 8.0 | 0.09 | 1.35 | 1.23 | 82 | 1015.7 |
| 20260904030118 | 67 | 175 | 3.0 | 7.0 | 0.09 | 1.35 | 1.23 | 82 | 1015.6 |
| 20260904025650 | 67 | 197 | 1.0 | 7.0 | 0.11 | 1.35 | 1.23 | 82 | 1016.3 |
| 20260904025141 | 67 | 205 | 5.0 | 7.0 | 0.11 | 1.35 | 1.23 | 82 | 1016.5 |
| 20260904024627 | 67 | 213 | 1.0 | 8.0 | 0.12 | 1.35 | 1.23 | 82 | 1016.4 |
| 20260904024144 | 67 | 115 | 2.0 | 8.0 | 0.12 | 1.35 | 1.23 | 82 | 1016.5 |
| 20260904023638 | 67 | 200 | 1.0 | 11.0 | 0.11 | 1.34 | 1.22 | 82 | 1016.6 |
| 20260904023126 | 67 | 237 | 3.0 | 12.0 | 0.10 | 1.33 | 1.21 | 82 | 1016.4 |
| 20260904022640 | 67 | 128 | 5.0 | 12.0 | 0.09 | 1.32 | 1.20 | 82 | 1016.8 |
| 20260904022126 | 67 | 142 | 7.0 | 13.0 | 0.07 | 1.30 | 1.18 | 82 | 1017.6 |
| 20260904021639 | 68 | 155 | 6.0 | 12.0 | 0.06 | 1.29 | 1.17 | 82 | 1018.1 |
| 20260904021134 | 68 | 164 | 7.0 | 14.0 | 0.05 | 1.27 | 1.15 | 82 | 1018.4 |
| 20260904020641 | 68 | 137 | 9.0 | 14.0 | 0.05 | 1.26 | 1.14 | 82 | 1018.4 |
| 20260904020134 | 67 | 131 | 9.0 | 13.0 | 0.05 | 1.25 | 1.13 | 82 | 1018.3 |
| 20260904015645 | 67 | 127 | 4.0 | 10.0 | 0.04 | 1.24 | 1.12 | 82 | 1018.5 |
| 20260904015133 | 67 | 160 | 5.0 | 8.0 | 0.04 | 1.23 | 1.11 | 82 | 1018.5 |
| 20260904014621 | 67 | 162 | 1.0 | 10.0 | 0.05 | 1.23 | 1.11 | 82 | 1018.4 |
| 20260904014137 | 67 | 205 | 4.0 | 10.0 | 0.05 | 1.23 | 1.11 | 82 | 1018.1 |
| 20260904013623 | 67 | 210 | 4.0 | 11.0 | 0.05 | 1.23 | 1.11 | 82 | 1017.4 |
| 20260904013118 | 67 | 211 | 8.0 | 10.0 | 0.05 | 1.23 | 1.11 | 82 | 1017.2 |
| 20260904012631 | 68 | 199 | 2.0 | 5.0 | 0.06 | 1.23 | 1.11 | 82 | 1016.6 |
| 20260904012125 | 68 | 266 | 1.0 | 5.0 | 0.07 | 1.23 | 1.11 | 82 | 1016.2 |
| 20260904011619 | 68 | 237 | 1.0 | 6.0 | 0.06 | 1.22 | 1.10 | 82 | 1015.9 |
| 20260904011135 | 68 | 196 | 2.0 | 6.0 | 0.07 | 1.22 | 1.10 | 81 | 1015.4 |
| 20260904010628 | 68 | 224 | 1.0 | 10.0 | 0.13 | 1.21 | 1.09 | 81 | 1015.5 |
| 20260904010143 | 68 | 187 | 5.0 | 10.0 | 0.22 | 1.20 | 1.08 | 81 | 1015.7 |
| 20260904005637 | 68 | 212 | 1.0 | 14.0 | 0.22 | 1.20 | 1.08 | 81 | 1015.7 |
| 20260904005124 | 68 | 193 | 5.0 | 14.0 | 0.21 | 1.19 | 1.07 | 81 | 1015.9 |
| 20260904004658 | 68 | 201 | 0.0 | 8.0 | 0.20 | 1.18 | 1.06 | 81 | 1015.5 |
| 20260904004125 | 68 | 68 | 6.0 | 8.0 | 0.20 | 1.18 | 1.06 | 81 | 1015.4 |
| 20260904003619 | 69 | 71 | 2.0 | 10.0 | 0.20 | 1.18 | 1.06 | 80 | 1015.9 |
| 20260904003134 | 69 | 262 | 4.0 | 14.0 | 0.20 | 1.18 | 1.06 | 80 | 1016.2 |
| 20260904002622 | 69 | 212 | 7.0 | 14.0 | 0.19 | 1.17 | 1.05 | 80 | 1016.5 |
| 20260904001643 | 71 | 209 | 4.0 | 17.0 | 0.18 | 1.16 | 1.04 | 80 | 1016.3 |
| 20260904001139 | 72 | 241 | 4.0 | 26.0 | 0.17 | 1.15 | 1.03 | 80 | 1016.0 |
| 20260904000646 | 74 | 269 | 12.0 | 32.0 | 0.08 | 1.06 | 0.94 | 80 | 1017.2 |
| 20260904000134 | 76 | 272 | 10.0 | 14.0 | 0.00 | 0.98 | 0.86 | 80 | 1016.8 |
| 20260903235643 | 76 | 234 | 0.0 | 0.0 | 0.00 | 0.98 | 0.86 | 79 | 1015.5 |
| 20260903235131 | 76 | 234 | 0.0 | 0.0 | 0.00 | 0.98 | 0.86 | 80 | 1015.8 |
| 20260903234645 | 76 | 234 | 0.0 | 0.0 | 0.00 | 0.98 | 0.86 | 80 | 1015.6 |
| 20260903234119 | 76 | 234 | 0.0 | 0.0 | 0.00 | 0.98 | 0.86 | 79 | 1015.3 |
| 20260903233632 | 77 | 233 | 0.0 | 0.0 | 0.00 | 0.98 | 0.86 | 79 | 1015.0 |
| 20260903233124 | 77 | 233 | 0.0 | 0.0 | 0.00 | 0.98 | 0.86 | 79 | 1015.2 |
| 20260903232640 | 77 | 233 | 0.0 | 0.0 | 0.00 | 0.98 | 0.86 | 79 | 1015.8 |
| 20260903232126 | 78 | 233 | 0.0 | 0.0 | 0.00 | 0.98 | 0.86 | 79 | 1015.4 |
| 20260903231619 | 78 | 233 | 0.0 | 0.0 | 0.00 | 0.98 | 0.86 | 79 | 1015.3 |
| 20260903231155 | 78 | 234 | 0.0 | 5.0 | 0.00 | 0.98 | 0.86 | 79 | 1015.7 |
| 20260903230641 | 78 | 234 | 1.0 | 5.0 | 0.00 | 0.98 | 0.86 | 79 | 1015.9 |
| 20260903230136 | 79 | 203 | 2.0 | 3.0 | 0.00 | 0.98 | 0.86 | 78 | 1015.7 |
| 20260903225626 | 79 | 202 | 0.0 | 0.0 | 0.00 | 0.98 | 0.86 | 78 | 1014.9 |
| 20260903225141 | 80 | 202 | 0.0 | 0.0 | 0.00 | 0.98 | 0.86 | 78 | 1014.6 |
| 20260903224633 | 80 | 202 | 0.0 | 0.0 | 0.00 | 0.98 | 0.86 | 78 | 1014.5 |
| 20260903224123 | 81 | 202 | 0.0 | 0.0 | 0.00 | 0.98 | 0.86 | 77 | 1014.2 |
| 20260903223637 | 81 | 204 | 0.0 | 0.0 | 0.00 | 0.98 | 0.86 | 77 | 1014.4 |
| 20260903223145 | 82 | 204 | 0.0 | 0.0 | 0.00 | 0.98 | 0.86 | 77 | 1014.1 |
| 20260903222619 | 83 | 204 | 0.0 | 0.0 | 0.00 | 0.98 | 0.86 | 77 | 1014.1 |
| 20260903222135 | 83 | 204 | 0.0 | 0.0 | 0.00 | 0.98 | 0.86 | 76 | 1014.3 |
| 20260903221623 | 84 | 204 | 0.0 | 0.0 | 0.00 | 0.98 | 0.86 | 76 | 1014.5 |
| 20260903221118 | 84 | 204 | 0.0 | 3.0 | 0.00 | 0.98 | 0.86 | 75 | 1014.5 |
| 20260903220628 | 85 | 204 | 0.0 | 3.0 | 0.00 | 0.98 | 0.86 | 75 | 1014.5 |
| 20260903220123 | 86 | 197 | 0.0 | 2.0 | 0.00 | 0.98 | 0.86 | 75 | 1014.3 |
| 20260903215618 | 87 | 197 | 0.0 | 2.0 | 0.00 | 0.98 | 0.86 | 74 | 1014.2 |
| 20260903215131 | 87 | 197 | 0.0 | 2.0 | 0.00 | 0.98 | 0.86 | 71 | 1014.2 |
| 20260903214625 | 88 | 197 | 1.0 | 2.0 | 0.00 | 0.98 | 0.86 | 70 | 1014.1 |
| 20260903214120 | 88 | 197 | 0.0 | 3.0 | 0.00 | 0.98 | 0.86 | 69 | 1013.8 |
| 20260903213632 | 88 | 197 | 0.0 | 4.0 | 0.00 | 0.98 | 0.86 | 69 | 1013.4 |
| 20260903213126 | 89 | 178 | 2.0 | 4.0 | 0.00 | 0.98 | 0.86 | 69 | 1013.4 |
| 20260903212641 | 89 | 194 | 1.0 | 3.0 | 0.00 | 0.98 | 0.86 | 69 | 1013.4 |
| 20260903212126 | 89 | 195 | 2.0 | 4.0 | 0.00 | 0.98 | 0.86 | 68 | 1013.7 |
| 20260903211620 | 90 | 194 | 1.0 | 4.0 | 0.00 | 0.98 | 0.86 | 67 | 1013.7 |
| 20260903211136 | 90 | 193 | 2.0 | 9.0 | 0.00 | 0.98 | 0.86 | 67 | 1013.8 |
| 20260903210621 | 90 | 185 | 4.0 | 9.0 | 0.00 | 0.98 | 0.86 | 64 | 1013.9 |
| 20260903210135 | 90 | 212 | 3.0 | 10.0 | 0.00 | 0.98 | 0.86 | 65 | 1013.9 |
| 20260903205625 | 90 | 201 | 3.0 | 7.0 | 0.00 | 0.98 | 0.86 | 65 | 1013.9 |
| 20260903205119 | 90 | 222 | 2.0 | 7.0 | 0.00 | 0.98 | 0.86 | 65 | 1013.9 |
| 20260903204634 | 90 | 216 | 2.0 | 8.0 | 0.00 | 0.98 | 0.86 | 65 | 1013.8 |
| 20260903204124 | 90 | 218 | 4.0 | 9.0 | 0.00 | 0.98 | 0.86 | 65 | 1013.9 |
| 20260903203637 | 90 | 226 | 6.0 | 9.0 | 0.00 | 0.98 | 0.86 | 65 | 1013.8 |
| 20260903203123 | 90 | 224 | 2.0 | 9.0 | 0.00 | 0.98 | 0.86 | 65 | 1013.7 |
| 20260903202700 | 90 | 224 | 3.0 | 10.0 | 0.00 | 0.98 | 0.86 | 64 | 1013.8 |
| 20260903202126 | 90 | 229 | 5.0 | 9.0 | 0.00 | 0.98 | 0.86 | 65 | 1013.9 |
| 20260903201640 | 89 | 219 | 5.0 | 9.0 | 0.00 | 0.98 | 0.86 | 66 | 1013.9 |
| 20260903201135 | 89 | 214 | 2.0 | 12.0 | 0.00 | 0.98 | 0.86 | 68 | 1014.0 |
| 20260903200621 | 89 | 225 | 4.0 | 12.0 | 0.00 | 0.98 | 0.86 | 67 | 1014.1 |
| 20260903200136 | 89 | 203 | 1.0 | 10.0 | 0.00 | 0.98 | 0.86 | 68 | 1014.1 |
| 20260903195623 | 89 | 197 | 5.0 | 10.0 | 0.00 | 0.98 | 0.86 | 68 | 1014.3 |
| 20260903195152 | 89 | 214 | 4.0 | 10.0 | 0.00 | 0.98 | 0.86 | 67 | 1014.4 |
| 20260903194618 | 89 | 191 | 4.0 | 10.0 | 0.00 | 0.98 | 0.86 | 67 | 1014.4 |
| 20260903194134 | 89 | 192 | 3.0 | 11.0 | 0.00 | 0.98 | 0.86 | 68 | 1014.5 |
| 20260903193628 | 88 | 149 | 7.0 | 11.0 | 0.00 | 0.98 | 0.86 | 67 | 1014.6 |
| 20260903193122 | 88 | 197 | 5.0 | 15.0 | 0.00 | 0.98 | 0.86 | 68 | 1014.7 |
| 20260903192657 | 88 | 174 | 10.0 | 15.0 | 0.00 | 0.98 | 0.86 | 68 | 1014.8 |
| 20260903192121 | 87 | 226 | 5.0 | 12.0 | 0.00 | 0.98 | 0.86 | 67 | 1014.9 |
| 20260903191634 | 87 | 174 | 9.0 | 14.0 | 0.00 | 0.98 | 0.86 | 68 | 1014.9 |
| 20260903191123 | 87 | 164 | 8.0 | 12.0 | 0.00 | 0.98 | 0.86 | 69 | 1015.0 |
| 20260903190636 | 86 | 214 | 8.0 | 14.0 | 0.00 | 0.98 | 0.86 | 70 | 1015.1 |
| 20260903190123 | 86 | 203 | 6.0 | 14.0 | 0.00 | 0.98 | 0.86 | 71 | 1015.2 |
| 20260903185639 | 85 | 168 | 9.0 | 16.0 | 0.00 | 0.98 | 0.86 | 71 | 1015.3 |
| 20260903185124 | 85 | 168 | 8.0 | 16.0 | 0.00 | 0.98 | 0.86 | 71 | 1015.5 |
| 20260903184638 | 85 | 212 | 10.0 | 16.0 | 0.00 | 0.98 | 0.86 | 72 | 1015.5 |
| 20260903184127 | 84 | 200 | 8.0 | 17.0 | 0.00 | 0.98 | 0.86 | 72 | 1015.7 |
| 20260903183700 | 84 | 202 | 9.0 | 17.0 | 0.00 | 0.98 | 0.86 | 71 | 1015.8 |
| 20260903183146 | 84 | 156 | 6.0 | 13.0 | 0.00 | 0.98 | 0.86 | 71 | 1015.8 |
| 20260903182641 | 84 | 217 | 6.0 | 17.0 | 0.00 | 0.98 | 0.86 | 72 | 1015.8 |
| 20260903182126 | 83 | 173 | 10.0 | 16.0 | 0.00 | 0.98 | 0.86 | 73 | 1016.0 |
| 20260903181658 | 83 | 178 | 7.0 | 16.0 | 0.00 | 0.98 | 0.86 | 73 | 1015.9 |
| 20260903181123 | 83 | 187 | 3.0 | 15.0 | 0.00 | 0.98 | 0.86 | 74 | 1016.0 |
| 20260903180657 | 82 | 172 | 7.0 | 16.0 | 0.00 | 0.98 | 0.86 | 74 | 1016.1 |
| 20260903180123 | 82 | 191 | 7.0 | 13.0 | 0.00 | 0.98 | 0.86 | 73 | 1016.3 |
| 20260903175658 | 82 | 236 | 6.0 | 15.0 | 0.00 | 0.98 | 0.86 | 74 | 1016.1 |
| 20260903175125 | 81 | 154 | 5.0 | 13.0 | 0.00 | 0.98 | 0.86 | 74 | 1016.1 |
| 20260903174620 | 81 | 177 | 9.0 | 15.0 | 0.00 | 0.98 | 0.86 | 74 | 1016.1 |
| 20260903174156 | 81 | 189 | 11.0 | 20.0 | 0.00 | 0.98 | 0.86 | 75 | 1016.2 |
| 20260903173621 | 81 | 164 | 11.0 | 20.0 | 0.00 | 0.98 | 0.86 | 75 | 1016.2 |
| 20260903173135 | 80 | 186 | 8.0 | 19.0 | 0.00 | 0.98 | 0.86 | 76 | 1016.2 |
| 20260903172624 | 80 | 160 | 10.0 | 20.0 | 0.00 | 0.98 | 0.86 | 76 | 1016.2 |
| 20260903172137 | 79 | 183 | 5.0 | 10.0 | 0.00 | 0.98 | 0.86 | 77 | 1016.1 |
| 20260903171645 | 78 | 176 | 4.0 | 9.0 | 0.00 | 0.98 | 0.86 | 78 | 1016.2 |
| 20260903171140 | 78 | 141 | 3.0 | 7.0 | 0.00 | 0.98 | 0.86 | 78 | 1016.3 |
| 20260903170633 | 78 | 186 | 3.0 | 12.0 | 0.00 | 0.98 | 0.86 | 77 | 1016.4 |
| 20260903170119 | 78 | 178 | 7.0 | 17.0 | 0.00 | 0.98 | 0.86 | 77 | 1016.4 |
| 20260903165652 | 78 | 178 | 10.0 | 18.0 | 0.00 | 0.98 | 0.86 | 78 | 1016.6 |
| 20260903165125 | 78 | 145 | 8.0 | 18.0 | 0.00 | 0.98 | 0.86 | 79 | 1016.7 |
| 20260903164659 | 77 | 166 | 5.0 | 10.0 | 0.00 | 0.98 | 0.86 | 79 | 1016.7 |
| 20260903164125 | 77 | 126 | 6.0 | 15.0 | 0.00 | 0.98 | 0.86 | 80 | 1016.7 |
| 20260903163619 | 76 | 201 | 7.0 | 16.0 | 0.00 | 0.98 | 0.86 | 80 | 1016.8 |
| 20260903163133 | 75 | 170 | 9.0 | 14.0 | 0.00 | 0.98 | 0.86 | 81 | 1017.0 |
| 20260903162622 | 75 | 206 | 4.0 | 12.0 | 0.00 | 0.98 | 0.86 | 83 | 1016.9 |
| 20260903162135 | 75 | 154 | 7.0 | 10.0 | 0.00 | 0.98 | 0.86 | 84 | 1017.0 |
| 20260903161642 | 74 | 168 | 5.0 | 8.0 | 0.00 | 0.98 | 0.86 | 85 | 1017.1 |
| 20260903161138 | 74 | 198 | 4.0 | 14.0 | 0.01 | 0.98 | 0.86 | 86 | 1017.1 |
| 20260903160624 | 73 | 192 | 8.0 | 14.0 | 0.01 | 1.37 | 0.86 | 86 | 1017.1 |
| 20260903160138 | 73 | 201 | 5.0 | 16.0 | 0.01 | 1.37 | 0.86 | 86 | 1017.4 |
| 20260903155626 | 73 | 170 | 8.0 | 16.0 | 0.01 | 1.37 | 0.86 | 86 | 1017.4 |
| 20260903155138 | 72 | 175 | 5.0 | 12.0 | 0.02 | 1.37 | 0.86 | 86 | 1017.4 |
| 20260903154625 | 72 | 185 | 4.0 | 12.0 | 0.02 | 1.37 | 0.86 | 86 | 1017.4 |
| 20260903154120 | 72 | 181 | 1.0 | 4.0 | 0.02 | 1.37 | 0.86 | 86 | 1017.6 |
| 20260903153654 | 71 | 193 | 0.0 | 6.0 | 0.02 | 1.37 | 0.86 | 87 | 1017.6 |
| 20260903153121 | 70 | 193 | 1.0 | 9.0 | 0.02 | 1.37 | 0.86 | 87 | 1017.9 |
| 20260903152638 | 70 | 194 | 4.0 | 11.0 | 0.02 | 1.37 | 0.86 | 87 | 1017.8 |
| 20260903152124 | 70 | 205 | 5.0 | 13.0 | 0.02 | 1.37 | 0.86 | 86 | 1018.0 |
| 20260903151635 | 70 | 174 | 8.0 | 13.0 | 0.03 | 1.37 | 0.86 | 86 | 1018.1 |
| 20260903151123 | 70 | 176 | 6.0 | 12.0 | 0.02 | 1.36 | 0.85 | 87 | 1018.4 |
| 20260903150616 | 70 | 220 | 5.0 | 9.0 | 0.02 | 1.36 | 0.85 | 87 | 1018.6 |
| 20260903150130 | 70 | 200 | 2.0 | 8.0 | 0.02 | 1.36 | 0.85 | 87 | 1018.6 |
| 20260903145639 | 70 | 199 | 3.0 | 7.0 | 0.02 | 1.36 | 0.85 | 87 | 1018.8 |
| 20260903145132 | 69 | 183 | 2.0 | 5.0 | 0.01 | 1.35 | 0.84 | 87 | 1018.9 |
| 20260903144620 | 69 | 203 | 0.0 | 4.0 | 0.02 | 1.35 | 0.84 | 87 | 1018.9 |
| 20260903144137 | 69 | 200 | 1.0 | 8.0 | 0.02 | 1.35 | 0.84 | 87 | 1018.8 |
| 20260903143623 | 69 | 191 | 3.0 | 8.0 | 0.02 | 1.35 | 0.84 | 87 | 1018.6 |
| 20260903143137 | 69 | 187 | 3.0 | 6.0 | 0.02 | 1.35 | 0.84 | 87 | 1018.6 |
| 20260903142624 | 69 | 182 | 2.0 | 5.0 | 0.03 | 1.35 | 0.84 | 87 | 1018.6 |
| 20260903142117 | 69 | 174 | 1.0 | 4.0 | 0.03 | 1.34 | 0.83 | 87 | 1018.4 |
| 20260903141631 | 69 | 234 | 0.0 | 6.0 | 0.03 | 1.34 | 0.83 | 87 | 1018.4 |
| 20260903141140 | 69 | 234 | 4.0 | 7.0 | 0.03 | 1.34 | 0.83 | 87 | 1018.6 |
| 20260903140625 | 69 | 223 | 3.0 | 8.0 | 0.04 | 1.34 | 0.83 | 87 | 1018.4 |
| 20260903140138 | 69 | 227 | 3.0 | 6.0 | 0.05 | 1.34 | 0.83 | 87 | 1018.3 |
| 20260903135625 | 68 | 228 | 0.0 | 3.0 | 0.07 | 1.34 | 0.83 | 87 | 1018.2 |
| 20260903135119 | 68 | 151 | 1.0 | 7.0 | 0.07 | 1.34 | 0.83 | 87 | 1018.3 |
| 20260903134634 | 68 | 129 | 3.0 | 7.0 | 0.06 | 1.33 | 0.82 | 87 | 1018.2 |
| 20260903134142 | 68 | 66 | 0.0 | 1.0 | 0.06 | 1.33 | 0.82 | 87 | 1018.1 |
| 20260903133656 | 67 | 62 | 0.0 | 0.0 | 0.06 | 1.33 | 0.82 | 87 | 1018.0 |
| 20260903133122 | 67 | 62 | 0.0 | 1.0 | 0.06 | 1.33 | 0.82 | 87 | 1018.6 |
| 20260903132633 | 67 | 62 | 0.0 | 5.0 | 0.05 | 1.32 | 0.81 | 87 | 1019.2 |
| 20260903132139 | 67 | 63 | 1.0 | 8.0 | 0.04 | 1.31 | 0.80 | 87 | 1019.3 |
| 20260903131632 | 68 | 79 | 4.0 | 8.0 | 0.04 | 1.31 | 0.80 | 87 | 1019.4 |
| 20260903131128 | 68 | 83 | 2.0 | 4.0 | 0.04 | 1.31 | 0.80 | 87 | 1019.8 |
| 20260903130622 | 68 | 62 | 2.0 | 14.0 | 0.03 | 1.30 | 0.79 | 87 | 1019.9 |
| 20260903130137 | 68 | 337 | 8.0 | 18.0 | 0.02 | 1.29 | 0.78 | 87 | 1020.1 |
| 20260903125646 | 67 | 10 | 8.0 | 15.0 | 0.00 | 1.27 | 0.76 | 86 | 1020.3 |
| 20260903125137 | 67 | 208 | 1.0 | 4.0 | 0.00 | 1.27 | 0.76 | 86 | 1018.5 |
| 20260903124624 | 67 | 198 | 2.0 | 5.0 | 0.00 | 1.27 | 0.76 | 86 | 1018.4 |
| 20260903124119 | 67 | 203 | 2.0 | 5.0 | 0.00 | 1.27 | 0.76 | 87 | 1018.4 |
| 20260903123632 | 68 | 195 | 0.0 | 4.0 | 0.00 | 1.27 | 0.76 | 87 | 1018.2 |
| 20260903123119 | 68 | 193 | 2.0 | 4.0 | 0.00 | 1.27 | 0.76 | 87 | 1018.4 |
| 20260903122636 | 68 | 196 | 1.0 | 3.0 | 0.00 | 1.27 | 0.76 | 87 | 1018.4 |
| 20260903122122 | 68 | 197 | 1.0 | 4.0 | 0.00 | 1.27 | 0.76 | 87 | 1018.5 |
| 20260903121635 | 68 | 199 | 1.0 | 4.0 | 0.00 | 1.27 | 0.76 | 87 | 1018.5 |
| 20260903121124 | 67 | 224 | 0.0 | 1.0 | 0.00 | 1.27 | 0.76 | 86 | 1018.5 |
| 20260903120618 | 67 | 224 | 0.0 | 4.0 | 0.00 | 1.27 | 0.76 | 86 | 1018.5 |
| 20260903120134 | 67 | 225 | 0.0 | 4.0 | 0.00 | 1.27 | 0.76 | 86 | 1018.5 |
| 20260903115622 | 67 | 201 | 1.0 | 7.0 | 0.00 | 1.27 | 0.76 | 86 | 1018.6 |
| 20260903115134 | 67 | 215 | 2.0 | 7.0 | 0.00 | 1.27 | 0.76 | 86 | 1018.5 |
| 20260903114622 | 67 | 197 | 2.0 | 7.0 | 0.00 | 1.27 | 0.76 | 86 | 1018.4 |
| 20260903114158 | 67 | 206 | 0.0 | 5.0 | 0.00 | 1.27 | 0.76 | 86 | 1018.4 |
| 20260903113623 | 66 | 192 | 2.0 | 5.0 | 0.02 | 1.27 | 0.76 | 86 | 1018.2 |
| 20260903113118 | 66 | 207 | 2.0 | 4.0 | 0.08 | 1.27 | 0.76 | 86 | 1018.4 |
| 20260903112629 | 66 | 212 | 0.0 | 4.0 | 0.08 | 1.27 | 0.76 | 86 | 1018.3 |
| 20260903112121 | 66 | 214 | 1.0 | 6.0 | 0.08 | 1.27 | 0.76 | 86 | 1018.3 |
| 20260903111636 | 66 | 193 | 2.0 | 4.0 | 0.08 | 1.27 | 0.76 | 86 | 1018.2 |
| 20260903111131 | 66 | 210 | 0.0 | 5.0 | 0.08 | 1.27 | 0.76 | 86 | 1018.4 |
| 20260903110624 | 66 | 199 | 1.0 | 4.0 | 0.08 | 1.27 | 0.76 | 86 | 1018.3 |
| 20260903110119 | 66 | 205 | 2.0 | 5.0 | 0.08 | 1.27 | 0.76 | 85 | 1018.2 |
| 20260903105634 | 66 | 231 | 3.0 | 6.0 | 0.08 | 1.27 | 0.76 | 86 | 1018.2 |
| 20260903105120 | 66 | 226 | 2.0 | 8.0 | 0.09 | 1.27 | 0.76 | 85 | 1018.2 |
| 20260903104635 | 66 | 210 | 5.0 | 8.0 | 0.09 | 1.27 | 0.76 | 85 | 1018.3 |
| 20260903104145 | 66 | 245 | 4.0 | 9.0 | 0.09 | 1.27 | 0.76 | 85 | 1018.2 |
| 20260903103636 | 66 | 172 | 4.0 | 10.0 | 0.11 | 1.24 | 0.73 | 85 | 1017.8 |
| 20260903103123 | 66 | 220 | 1.0 | 5.0 | 0.13 | 1.19 | 0.68 | 85 | 1018.4 |
| 20260903102638 | 66 | 220 | 0.0 | 0.0 | 0.26 | 1.19 | 0.68 | 85 | 1018.0 |
| 20260903102125 | 66 | 318 | 0.0 | 2.0 | 0.27 | 1.19 | 0.68 | 85 | 1018.1 |
| 20260903101621 | 66 | 318 | 0.0 | 3.0 | 0.35 | 1.19 | 0.68 | 85 | 1018.2 |
| 20260903101137 | 66 | 318 | 0.0 | 4.0 | 0.51 | 1.19 | 0.68 | 85 | 1018.2 |
| 20260903100622 | 66 | 319 | 2.0 | 4.0 | 0.77 | 1.19 | 0.68 | 84 | 1018.1 |
| 20260903100157 | 66 | 101 | 0.0 | 3.0 | 0.80 | 1.19 | 0.68 | 84 | 1018.0 |
| 20260903095624 | 66 | 101 | 0.0 | 9.0 | 0.80 | 1.19 | 0.68 | 84 | 1018.1 |
| 20260903095137 | 66 | 95 | 3.0 | 13.0 | 0.79 | 1.18 | 0.67 | 84 | 1018.1 |
| 20260903094625 | 66 | 14 | 8.0 | 13.0 | 0.79 | 1.18 | 0.67 | 84 | 1018.5 |
| 20260903094140 | 66 | 53 | 3.0 | 11.0 | 0.79 | 1.18 | 0.67 | 83 | 1018.2 |
| 20260903093642 | 66 | 26 | 5.0 | 12.0 | 0.73 | 1.12 | 0.61 | 83 | 1018.7 |
| 20260903093136 | 66 | 5 | 7.0 | 12.0 | 0.67 | 1.06 | 0.55 | 83 | 1018.7 |
| 20260903092644 | 67 | 10 | 6.0 | 12.0 | 0.54 | 0.93 | 0.42 | 83 | 1018.8 |
| 20260903092135 | 67 | 277 | 2.0 | 15.0 | 0.53 | 0.92 | 0.41 | 83 | 1019.1 |
| 20260903091637 | 68 | 47 | 11.0 | 18.0 | 0.44 | 0.83 | 0.32 | 83 | 1018.7 |
| 20260903091144 | 68 | 47 | 9.0 | 21.0 | 0.25 | 0.64 | 0.13 | 83 | 1018.8 |
| 20260903090636 | 69 | 10 | 5.0 | 13.0 | 0.02 | 0.41 | 0.41 | 83 | 1019.0 |
| 20260903090124 | 70 | 39 | 8.0 | 13.0 | 0.00 | 0.39 | 0.39 | 82 | 1018.5 |
| 20260903085620 | 69 | 37 | 9.0 | 14.0 | 0.00 | 0.39 | 0.39 | 83 | 1017.9 |
| 20260903085134 | 69 | 29 | 9.0 | 13.0 | 0.00 | 0.39 | 0.39 | 83 | 1017.5 |
| 20260903084622 | 69 | 5 | 7.0 | 10.0 | 0.00 | 0.39 | 0.39 | 83 | 1017.9 |
| 20260903084137 | 69 | 37 | 5.0 | 9.0 | 0.00 | 0.39 | 0.39 | 83 | 1017.8 |
| 20260903083624 | 70 | 50 | 0.0 | 12.0 | 0.00 | 0.39 | 0.39 | 84 | 1018.0 |
| 20260903083139 | 70 | 322 | 5.0 | 19.0 | 0.00 | 0.39 | 0.39 | 84 | 1018.2 |
| 20260903082626 | 69 | 353 | 13.0 | 19.0 | 0.00 | 0.39 | 0.39 | 84 | 1018.0 |
| 20260903082119 | 70 | 10 | 13.0 | 17.0 | 0.00 | 0.39 | 0.39 | 85 | 1018.2 |
| 20260903081633 | 69 | 24 | 7.0 | 10.0 | 0.00 | 0.39 | 0.39 | 85 | 1017.7 |
| 20260903081122 | 69 | 5 | 6.0 | 10.0 | 0.00 | 0.39 | 0.39 | 85 | 1017.3 |
| 20260903080618 | 69 | 35 | 4.0 | 10.0 | 0.00 | 0.39 | 0.39 | 85 | 1017.0 |
| 20260903080134 | 68 | 14 | 3.0 | 10.0 | 0.00 | 0.39 | 0.39 | 84 | 1017.1 |
| 20260903075622 | 68 | 29 | 4.0 | 8.0 | 0.00 | 0.39 | 0.39 | 84 | 1017.1 |
| 20260903075136 | 68 | 47 | 3.0 | 5.0 | 0.00 | 0.39 | 0.39 | 84 | 1016.8 |
| 20260903074624 | 68 | 56 | 1.0 | 2.0 | 0.00 | 0.39 | 0.39 | 84 | 1016.8 |
| 20260903074136 | 68 | 56 | 0.0 | 4.0 | 0.00 | 0.39 | 0.39 | 84 | 1016.7 |
| 20260903073642 | 68 | 61 | 2.0 | 5.0 | 0.00 | 0.39 | 0.39 | 84 | 1016.5 |
| 20260903073135 | 68 | 61 | 1.0 | 5.0 | 0.00 | 0.39 | 0.39 | 84 | 1016.5 |
| 20260903072631 | 67 | 62 | 2.0 | 5.0 | 0.00 | 0.39 | 0.39 | 84 | 1016.5 |
| 20260903072123 | 67 | 69 | 2.0 | 4.0 | 0.00 | 0.39 | 0.39 | 84 | 1016.5 |
| 20260903071639 | 67 | 70 | 0.0 | 4.0 | 0.00 | 0.39 | 0.39 | 84 | 1016.6 |
| 20260903071125 | 67 | 116 | 0.0 | 0.0 | 0.00 | 0.39 | 0.39 | 84 | 1016.4 |